When you browse on this site, cookies collect data to enhance your experience and personalize the content and advertising you see.
Visit our Privacy Policy to learn more. By continuing to use the site, you agree to this use of cookies and data.
  • In Czech Republic
  • List of Countries
  • For 7 days
  • Water Temperature
  • Weather Map
  • Weather Widgets
  • user-avatar
    Login

    Hourly Weather Sredniy

    Today, 8 April, Wednesday

    Time Temperature Precipitation Wind Pressure Humidity
    00:00 +4°C° 0 mm 6 mps 750 mmHg 75%
    01:00 +4°C° 0 mm 6 mps 749 mmHg 74%
    02:00 +3°C° 0 mm 6 mps 749 mmHg 74%
    03:00 +3°C° 0 mm 7 mps 748 mmHg 73%
    04:00 +3°C° 0 mm 7 mps 747 mmHg 72%
    05:00 +3°C° 0 mm 7 mps 746 mmHg 71%
    06:00 +4°C° 0 mm 7 mps 745 mmHg 68%
    07:00 +5°C° 0 mm 8 mps 744 mmHg 65%
    08:00 +6°C° 0 mm 8 mps 744 mmHg 62%
    09:00 +6°C° 0.2 mm 7 mps 743 mmHg 64%
    10:00 +8°C° 0.2 mm 7 mps 743 mmHg 67%
    11:00 +8°C° 0.2 mm 7 mps 743 mmHg 70%
    12:00 +8°C° 0.2 mm 7 mps 743 mmHg 67%
    13:00 +9°C° 0.2 mm 7 mps 744 mmHg 64%
    14:00 +9°C° 0.2 mm 7 mps 744 mmHg 61%
    15:00 +9°C° 0 mm 7 mps 744 mmHg 62%
    16:00 +9°C° 0 mm 6 mps 744 mmHg 63%
    17:00 +9°C° 0 mm 5 mps 745 mmHg 64%
    18:00 +8°C° 0 mm 5 mps 745 mmHg 69%
    19:00 +7°C° 0 mm 4 mps 745 mmHg 74%
    20:00 +7°C° 0 mm 4 mps 745 mmHg 79%
    21:00 +6°C° 0 mm 4 mps 746 mmHg 81%
    22:00 +5°C° 0 mm 4 mps 746 mmHg 82%
    23:00 +4°C° 0 mm 4 mps 746 mmHg 84%

    Tomorrow, 9 April, Thursday

    Time Temperature Precipitation Wind Pressure Humidity
    00:00 +4°C° 0 mm 3 mps 746 mmHg 83%
    01:00 +3°C° 0 mm 3 mps 746 mmHg 82%
    02:00 +4°C° 0 mm 2 mps 746 mmHg 82%
    03:00 +4°C° 0 mm 2 mps 746 mmHg 83%
    04:00 +4°C° 0 mm 2 mps 746 mmHg 84%
    05:00 +5°C° 0 mm 1 mps 746 mmHg 86%
    06:00 +6°C° 0 mm 1 mps 746 mmHg 81%
    07:00 +5°C° 0 mm 2 mps 746 mmHg 77%
    08:00 +6°C° 0 mm 2 mps 746 mmHg 72%
    09:00 +7°C° 0 mm 2 mps 745 mmHg 66%
    10:00 +8°C° 0 mm 3 mps 745 mmHg 61%
    11:00 +10°C° 0 mm 3 mps 744 mmHg 55%
    12:00 +10°C° 0 mm 4 mps 744 mmHg 53%
    13:00 +11°C° 0 mm 4 mps 743 mmHg 52%
    14:00 +11°C° 0 mm 4 mps 743 mmHg 50%
    15:00 +11°C° 0 mm 4 mps 742 mmHg 52%
    16:00 +11°C° 0 mm 4 mps 742 mmHg 54%
    17:00 +11°C° 0 mm 4 mps 741 mmHg 57%
    18:00 +10°C° 0 mm 4 mps 741 mmHg 61%
    19:00 +8°C° 0 mm 4 mps 740 mmHg 66%
    20:00 +8°C° 0 mm 4 mps 740 mmHg 71%
    21:00 +7°C° 0 mm 4 mps 739 mmHg 72%
    22:00 +7°C° 0 mm 4 mps 739 mmHg 72%
    23:00 +7°C° 0 mm 4 mps 738 mmHg 73%

    Day after tomorrow, 10 April, Friday

    Time Temperature Precipitation Wind Pressure Humidity
    00:00 +7°C° 0 mm 5 mps 738 mmHg 73%
    01:00 +7°C° 0 mm 5 mps 737 mmHg 72%
    02:00 +7°C° 0 mm 5 mps 737 mmHg 72%
    03:00 +6°C° 0.8 mm 5 mps 736 mmHg 77%
    04:00 +6°C° 0.8 mm 5 mps 736 mmHg 83%
    05:00 +6°C° 0.8 mm 5 mps 736 mmHg 88%
    06:00 +6°C° 0.4 mm 5 mps 736 mmHg 86%
    07:00 +7°C° 0.4 mm 5 mps 736 mmHg 84%
    08:00 +7°C° 0.4 mm 5 mps 736 mmHg 82%
    09:00 +7°C° 0.1 mm 5 mps 736 mmHg 77%
    10:00 +8°C° 0.1 mm 5 mps 736 mmHg 72%
    11:00 +8°C° 0.1 mm 4 mps 737 mmHg 66%
    12:00 +8°C° 0.2 mm 5 mps 737 mmHg 65%
    13:00 +8°C° 0.2 mm 5 mps 737 mmHg 63%
    14:00 +8°C° 0.2 mm 5 mps 737 mmHg 62%
    15:00 +8°C° 0.1 mm 5 mps 737 mmHg 60%
    16:00 +7°C° 0.1 mm 5 mps 737 mmHg 59%
    17:00 +7°C° 0.1 mm 5 mps 737 mmHg 57%
    18:00 +6°C° 0 mm 5 mps 738 mmHg 61%
    19:00 +5°C° 0 mm 4 mps 738 mmHg 64%
    20:00 +4°C° 0 mm 4 mps 738 mmHg 68%
    21:00 +3°C° 0 mm 4 mps 739 mmHg 70%
    22:00 +3°C° 0 mm 4 mps 739 mmHg 73%
    23:00 +1°C° 0 mm 4 mps 739 mmHg 76%

    11 April, Saturday

    Time Temperature Precipitation Wind Pressure Humidity
    00:00 +1°C° 0 mm 4 mps 739 mmHg 73%
    01:00 0°C° 0 mm 4 mps 739 mmHg 71%
    02:00 -1°C° 0 mm 4 mps 740 mmHg 68%
    03:00 -1°C° 0 mm 4 mps 740 mmHg 71%
    04:00 -1°C° 0 mm 3 mps 740 mmHg 74%
    05:00 -1°C° 0 mm 3 mps 740 mmHg 76%
    06:00 -1°C° 0 mm 4 mps 740 mmHg 71%
    07:00 0°C° 0 mm 4 mps 740 mmHg 66%
    08:00 +2°C° 0 mm 5 mps 740 mmHg 61%
    09:00 +2°C° 0.2 mm 5 mps 740 mmHg 61%
    10:00 +2°C° 0.2 mm 6 mps 740 mmHg 62%
    11:00 +2°C° 0.2 mm 6 mps 740 mmHg 63%
    12:00 +2°C° 0.2 mm 7 mps 741 mmHg 62%
    13:00 +2°C° 0.2 mm 8 mps 741 mmHg 60%
    14:00 +2°C° 0.2 mm 8 mps 741 mmHg 58%
    15:00 +2°C° 0.3 mm 8 mps 742 mmHg 58%
    16:00 +1°C° 0.3 mm 8 mps 742 mmHg 59%
    17:00 +1°C° 0.3 mm 8 mps 742 mmHg 59%
    18:00 0°C° 0.1 mm 7 mps 743 mmHg 61%
    19:00 -1°C° 0.1 mm 6 mps 744 mmHg 63%
    20:00 -2°C° 0.1 mm 6 mps 745 mmHg 65%
    21:00 -2°C° 0 mm 5 mps 745 mmHg 66%
    22:00 -2°C° 0 mm 5 mps 745 mmHg 68%
    23:00 -4°C° 0 mm 5 mps 746 mmHg 69%

    12 April, Sunday

    Time Temperature Precipitation Wind Pressure Humidity
    00:00 -4°C° 0 mm 5 mps 746 mmHg 68%
    01:00 -4°C° 0 mm 5 mps 747 mmHg 67%
    02:00 -4°C° 0 mm 5 mps 747 mmHg 66%
    03:00 -4°C° 0 mm 5 mps 747 mmHg 66%
    04:00 -4°C° 0 mm 5 mps 747 mmHg 66%
    05:00 -5°C° 0 mm 5 mps 748 mmHg 67%
    06:00 -3°C° 0 mm 4 mps 748 mmHg 60%
    07:00 -2°C° 0 mm 4 mps 748 mmHg 53%
    08:00 -1°C° 0 mm 4 mps 748 mmHg 46%
    09:00 0°C° 0 mm 4 mps 748 mmHg 42%
    10:00 +1°C° 0 mm 4 mps 748 mmHg 39%
    11:00 +3°C° 0 mm 4 mps 748 mmHg 36%
    12:00 +3°C° 0 mm 4 mps 748 mmHg 35%
    13:00 +4°C° 0 mm 4 mps 747 mmHg 34%
    14:00 +4°C° 0 mm 4 mps 747 mmHg 34%
    15:00 +4°C° 0 mm 4 mps 747 mmHg 36%
    16:00 +4°C° 0 mm 4 mps 746 mmHg 38%
    17:00 +4°C° 0 mm 3 mps 746 mmHg 40%
    18:00 +3°C° 0 mm 3 mps 746 mmHg 45%
    19:00 +3°C° 0 mm 2 mps 746 mmHg 49%
    20:00 +2°C° 0 mm 2 mps 746 mmHg 54%
    21:00 +2°C° 0 mm 2 mps 746 mmHg 57%
    22:00 +1°C° 0 mm 2 mps 745 mmHg 61%
    23:00 0°C° 0 mm 3 mps 745 mmHg 64%

    13 April, Monday

    Time Temperature Precipitation Wind Pressure Humidity
    00:00 0°C° 0 mm 3 mps 745 mmHg 65%
    01:00 0°C° 0 mm 3 mps 745 mmHg 66%
    02:00 -1°C° 0 mm 4 mps 745 mmHg 67%
    03:00 -1°C° 0 mm 4 mps 744 mmHg 68%
    04:00 -1°C° 0 mm 4 mps 744 mmHg 69%
    05:00 -1°C° 0 mm 5 mps 744 mmHg 70%
    06:00 0°C° 0 mm 5 mps 744 mmHg 64%
    07:00 +2°C° 0 mm 6 mps 744 mmHg 59%
    08:00 +4°C° 0 mm 6 mps 744 mmHg 54%
    09:00 +5°C° 0 mm 6 mps 743 mmHg 50%
    10:00 +8°C° 0 mm 7 mps 743 mmHg 46%
    11:00 +10°C° 0 mm 7 mps 743 mmHg 43%
    12:00 +10°C° 0 mm 7 mps 742 mmHg 43%
    13:00 +11°C° 0 mm 8 mps 742 mmHg 43%
    14:00 +12°C° 0 mm 8 mps 742 mmHg 43%
    15:00 +11°C° 0 mm 7 mps 741 mmHg 47%
    16:00 +11°C° 0 mm 7 mps 741 mmHg 50%
    17:00 +11°C° 0 mm 6 mps 740 mmHg 53%
    18:00 +10°C° 0 mm 6 mps 740 mmHg 55%
    19:00 +9°C° 0 mm 6 mps 740 mmHg 58%
    20:00 +8°C° 0 mm 7 mps 740 mmHg 60%
    21:00 +8°C° 0 mm 7 mps 740 mmHg 59%
    22:00 +6°C° 0 mm 7 mps 740 mmHg 58%
    23:00 +6°C° 0 mm 7 mps 740 mmHg 57%
    Show more